SV1RVP-13 Weather Reports


time (UTC)temp
C
wind
direction
speed
KPH
gust
KPH
rain 1hr
cm
rain 24hr
cm
rain mn
cm
humidity
%
barometer
mb
20260508094840 21 229 3.2 0.0 0.00 0.00 0.00 52 1018.1
20260508093825 21 180 4.8 0.0 0.00 0.00 0.00 52 1018.4
20260508092837 21 122 4.8 0.0 0.00 0.00 0.00 54 1018.1
20260508091843 21 220 4.8 0.0 0.00 0.00 0.00 56 1018.4
20260508090844 21 176 3.2 0.0 0.00 0.00 0.00 55 1018.4
20260508085830 21 172 3.2 0.0 0.00 0.00 0.00 56 1018.4
20260508084828 21 194 4.8 0.0 0.00 0.00 0.00 56 1018.4
20260508083833 21 186 4.8 0.0 0.00 0.00 0.00 56 1018.6
20260508082826 21 215 4.8 0.0 0.00 0.00 0.00 56 1018.8
20260508081831 21 161 3.2 0.0 0.00 0.00 0.00 57 1018.5
20260508080856 20 183 3.2 0.0 0.00 0.00 0.00 57 1018.4
20260508075841 20 202 3.2 0.0 0.00 0.00 0.00 58 1018.6
20260508074843 20 188 4.8 0.0 0.00 0.00 0.00 58 1018.8
20260508073847 20 147 4.8 0.0 0.00 0.00 0.00 57 1018.8
20260508072834 20 216 4.8 0.0 0.00 0.00 0.00 55 1018.9
20260508071839 20 333 4.8 0.0 0.00 0.00 0.00 55 1019.0
20260508070828 20 192 3.2 0.0 0.00 0.00 0.00 55 1019.2
20260508065844 20 131 4.8 0.0 0.00 0.00 0.00 53 1019.4
20260508064829 20 205 3.2 0.0 0.00 0.00 0.00 52 1019.5
20260508063855 20 199 3.2 0.0 0.00 0.00 0.00 51 1019.3
20260508062842 20 177 3.2 0.0 0.00 0.00 0.00 50 1019.0
20260508061843 20 210 3.2 0.0 0.00 0.00 0.00 49 1019.0
20260508060837 20 244 3.2 0.0 0.00 0.00 0.00 48 1018.6
20260508055837 20 210 3.2 0.0 0.00 0.00 0.00 46 1018.4
20260508054840 20 234 3.2 0.0 0.00 0.00 0.00 46 1017.8
20260508053831 20 252 1.6 0.0 0.00 0.00 0.00 47 1017.5
20260508052831 20 244 1.6 0.0 0.00 0.00 0.00 47 1017.4
20260508051851 20 260 1.6 0.0 0.00 0.00 0.00 48 1017.2
20260508050843 20 227 1.6 0.0 0.00 0.00 0.00 50 1017.1
20260508045838 20 205 1.6 0.0 0.00 0.00 0.00 51 1017.0
20260508044842 19 194 1.6 0.0 0.00 0.00 0.00 54 1017.0
20260508043834 19 233 0.0 0.0 0.00 0.00 0.00 59 1017.0
20260508042831 19 233 1.6 0.0 0.00 0.00 0.00 59 1016.8
20260508041856 19 330 0.0 0.0 0.00 0.00 0.00 60 1016.6
20260508040827 19 330 1.6 0.0 0.00 0.00 0.00 60 1016.3
20260508035843 19 341 3.2 0.0 0.00 0.00 0.00 60 1016.2
20260508034843 19 5 1.6 0.0 0.00 0.00 0.00 60 1015.9
20260508033832 19 360 1.6 0.0 0.00 0.00 0.00 60 1016.0
20260508032828 19 360 1.6 0.0 0.00 0.00 0.00 59 1015.9
20260508031849 19 22 1.6 0.0 0.00 0.00 0.00 60 1016.0
20260508030838 19 22 0.0 0.0 0.00 0.00 0.00 60 1016.0
20260508025833 19 349 1.6 0.0 0.00 0.00 0.00 61 1015.9
20260508024834 19 350 1.6 0.0 0.00 0.00 0.00 60 1016.2
20260508023855 18 292 0.0 0.0 0.00 0.00 0.00 61 1016.0
20260508022827 19 292 0.0 0.0 0.00 0.00 0.00 60 1016.1
20260508021856 19 292 0.0 0.0 0.00 0.00 0.00 59 1016.3
20260508020827 19 292 1.6 0.0 0.00 0.00 0.00 58 1016.2
20260508015844 19 306 1.6 0.0 0.00 0.00 0.00 57 1016.2
20260508014845 19 24 0.0 0.0 0.00 0.00 0.00 57 1016.1
20260508013835 19 180 0.0 0.0 0.00 0.00 0.00 57 1016.3
20260508012834 19 180 0.0 0.0 0.00 0.00 0.00 58 1016.4
20260508011829 19 182 1.6 0.0 0.00 0.00 0.00 59 1016.5
20260508010835 19 190 1.6 0.0 0.00 0.00 0.00 60 1016.6
20260508005831 19 185 1.6 0.0 0.00 0.00 0.00 61 1016.7
20260508004853 19 169 1.6 0.0 0.00 0.00 0.00 61 1016.9
20260508003823 19 186 1.6 0.0 0.00 0.00 0.00 61 1016.9
20260508002844 19 148 0.0 0.0 0.00 0.00 0.00 62 1016.8
20260508001837 18 236 0.0 0.0 0.00 0.00 0.00 65 1016.9
20260508000840 18 236 0.0 0.0 0.00 0.00 0.00 65 1016.8
20260507235838 18 236 0.0 0.0 0.00 0.00 0.00 65 1016.8
20260507234830 19 243 1.6 0.0 0.00 0.00 0.00 65 1017.0
20260507233830 19 228 1.6 0.0 0.00 0.00 0.00 64 1017.2
20260507232848 19 205 1.6 0.0 0.00 0.00 0.00 64 1017.4
20260507231843 19 221 3.2 0.0 0.00 0.00 0.00 64 1017.5
20260507230846 19 203 3.2 0.0 0.00 0.00 0.00 65 1017.3
20260507225841 19 149 1.6 0.0 0.00 0.00 0.00 66 1017.4
20260507224834 19 149 3.2 0.0 0.00 0.00 0.00 65 1017.6
20260507223833 19 211 3.2 0.0 0.00 0.00 0.00 64 1017.8
20260507222827 19 224 3.2 0.0 0.00 0.00 0.00 63 1017.8
20260507221827 19 202 3.2 0.0 0.00 0.00 0.00 62 1017.7
20260507220829 19 207 3.2 0.0 0.00 0.00 0.00 62 1017.7
20260507215849 19 180 4.8 0.0 0.00 0.00 0.00 61 1017.8
20260507214839 19 198 3.2 0.0 0.00 0.00 0.00 60 1018.1
20260507213842 19 156 4.8 0.0 0.00 0.00 0.00 59 1018.1
20260507212836 20 126 3.2 0.0 0.00 0.00 0.00 58 1018.2
20260507211833 20 198 4.8 0.0 0.00 0.00 0.00 58 1018.2
20260507210831 20 133 3.2 0.0 0.00 0.00 0.00 55 1018.2
20260507205849 20 170 4.8 0.0 0.00 0.00 0.00 53 1018.3
20260507204844 20 147 4.8 0.0 0.00 0.00 0.00 51 1018.1
20260507203844 20 173 3.2 0.0 0.00 0.00 0.00 49 1018.2
20260507202832 20 195 3.2 0.0 0.00 0.00 0.00 47 1018.3
20260507201832 20 100 1.6 0.0 0.00 0.00 0.00 45 1018.1
20260507200832 20 215 3.2 0.0 0.00 0.00 0.00 44 1018.1
20260507195849 21 163 3.2 0.0 0.00 0.00 0.00 42 1017.9
20260507194843 21 200 1.6 0.0 0.00 0.00 0.00 42 1018.1
20260507193827 21 160 1.6 0.0 0.00 0.00 0.00 42 1017.9
20260507192855 21 219 0.0 0.0 0.00 0.00 0.00 42 1017.9
20260507191839 21 246 1.6 0.0 0.00 0.00 0.00 42 1017.9
20260507190838 21 206 0.0 0.0 0.00 0.00 0.00 43 1017.7
20260507185826 21 206 1.6 0.0 0.00 0.00 0.00 44 1017.6
20260507184833 20 187 1.6 0.0 0.00 0.00 0.00 46 1017.8
20260507183835 20 151 0.0 0.0 0.00 0.00 0.00 47 1017.8
20260507182826 20 250 1.6 0.0 0.00 0.00 0.00 48 1017.6
20260507181845 20 179 1.6 0.0 0.00 0.00 0.00 48 1017.7
20260507180845 20 79 3.2 0.0 0.00 0.00 0.00 48 1017.6
20260507175835 20 169 3.2 0.0 0.00 0.00 0.00 49 1017.7
20260507174838 20 242 4.8 0.0 0.00 0.00 0.00 49 1017.5
20260507173838 20 158 6.4 0.0 0.00 0.00 0.00 50 1017.4
20260507172828 21 186 4.8 0.0 0.00 0.00 0.00 49 1017.7
20260507171829 21 206 4.8 0.0 0.00 0.00 0.00 48 1017.7
20260507170852 21 266 4.8 0.0 0.00 0.00 0.00 45 1017.5
20260507165838 21 198 4.8 0.0 0.00 0.00 0.00 44 1017.2
20260507164845 22 146 4.8 0.0 0.00 0.00 0.00 43 1016.9
20260507163956 22 159 4.8 0.0 0.00 0.00 0.00 42 1017.0
20260507162837 22 109 3.2 0.0 0.00 0.00 0.00 42 1017.2
20260507161837 22 194 4.8 0.0 0.00 0.00 0.00 44 1017.1
20260507160827 22 234 3.2 0.0 0.00 0.00 0.00 44 1017.1
20260507155845 22 136 4.8 0.0 0.00 0.00 0.00 44 1017.1
20260507154828 22 162 4.8 0.0 0.00 0.00 0.00 43 1017.2
20260507153948 22 194 4.8 0.0 0.00 0.00 0.00 45 1017.2
20260507153852 22 194 4.8 0.0 0.00 0.00 0.00 45 1017.2
20260507153149 22 163 6.4 0.0 0.00 0.00 0.00 45 1017.4
20260507152843 22 163 6.4 0.0 0.00 0.00 0.00 45 1017.4
20260507152534 22 239 4.8 0.0 0.00 0.00 0.00 46 1017.6
20260507151841 22 239 4.8 0.0 0.00 0.00 0.00 46 1017.6
20260507150854 22 168 4.8 0.0 0.00 0.00 0.00 47 1017.5
20260507145853 22 127 4.8 0.0 0.00 0.00 0.00 47 1017.5
20260507144840 22 196 6.4 0.0 0.00 0.00 0.00 46 1017.5
20260507143829 23 193 6.4 0.0 0.00 0.00 0.00 46 1017.7
20260507142840 23 195 4.8 0.0 0.00 0.00 0.00 45 1017.6
20260507141845 23 246 6.4 0.0 0.00 0.00 0.00 44 1017.5
20260507140852 23 166 8.0 0.0 0.00 0.00 0.00 43 1017.4
20260507135857 23 169 6.4 0.0 0.00 0.00 0.00 43 1017.2
20260507134253 23 209 6.4 0.0 0.00 0.00 0.00 42 1017.3
20260507132943 24 189 8.0 0.0 0.00 0.00 0.00 40 1017.0
20260507131856 24 223 8.0 0.0 0.00 0.00 0.00 43 1017.0
20260507130837 23 194 4.8 0.0 0.00 0.00 0.00 44 1017.1
20260507125831 23 165 6.4 0.0 0.00 0.00 0.00 47 1017.2
20260507124849 23 148 4.8 0.0 0.00 0.00 0.00 47 1017.4
20260507123840 23 125 4.8 0.0 0.00 0.00 0.00 49 1017.5
20260507122841 23 140 4.8 0.0 0.00 0.00 0.00 49 1017.7
20260507121840 23 192 4.8 0.0 0.00 0.00 0.00 53 1017.8
20260507120850 23 224 6.4 0.0 0.00 0.00 0.00 50 1017.8
20260507115837 24 192 8.0 0.0 0.00 0.00 0.00 48 1017.8
20260507114843 24 186 4.8 0.0 0.00 0.00 0.00 51 1017.6
20260507113846 23 185 4.8 0.0 0.00 0.00 0.00 56 1017.9
20260507112835 22 161 8.0 0.0 0.00 0.00 0.00 62 1018.0
20260507111835 23 173 6.4 0.0 0.00 0.00 0.00 63 1018.0
20260507110852 22 173 6.4 0.0 0.00 0.00 0.00 62 1018.2
20260507105837 23 213 8.0 0.0 0.00 0.00 0.00 60 1018.0
20260507104836 23 209 8.0 0.0 0.00 0.00 0.00 58 1017.9
20260507103838 24 215 6.4 0.0 0.00 0.00 0.00 57 1017.9
20260507102827 24 159 4.8 0.0 0.00 0.00 0.00 58 1017.5
20260507101830 23 177 6.4 0.0 0.00 0.00 0.00 63 1017.4
20260507100844 23 35 4.8 0.0 0.00 0.00 0.00 66 1017.6
20260507095826 22 229 6.4 0.0 0.00 0.00 0.00 71 1017.6